Time,TemperatureF,DewpointF,PressureIn,WindDirection,WindDirectionDegrees,WindSpeedMPH,WindSpeedGustMPH,Humidity,HourlyPrecipIn,Conditions,Clouds,dailyrainin,SoftwareType,DateUTC
2013-09-04 00:00:00,79.5,58.1,29.79,NNE,22,1.0,1.0,48,0.00,,,0.00,VWS V14.01,2013-09-04 07:00:00,
2013-09-04 00:05:00,79.1,58.3,29.79,NNE,22,2.0,4.0,49,0.00,,,0.00,VWS V14.01,2013-09-04 07:05:00,
2013-09-04 00:10:00,78.6,58.4,29.79,NNE,22,2.0,4.0,50,0.00,,,0.00,VWS V14.01,2013-09-04 07:10:00,
2013-09-04 00:15:00,78.2,58.6,29.79,NNE,26,1.0,3.0,51,0.00,,,0.00,VWS V14.01,2013-09-04 07:15:00,
2013-09-04 00:20:00,77.7,58.7,29.79,NNE,17,1.0,5.0,52,0.00,,,0.00,VWS V14.01,2013-09-04 07:20:00,
2013-09-04 00:25:00,77.3,58.8,29.79,North,360,3.0,4.0,53,0.00,,,0.00,VWS V14.01,2013-09-04 07:25:00,
2013-09-04 00:30:00,77.0,59.1,29.79,North,360,0.0,3.0,54,0.00,,,0.00,VWS V14.01,2013-09-04 07:30:00,
2013-09-04 00:35:00,76.8,58.9,29.79,North,351,0.0,3.0,54,0.00,,,0.00,VWS V14.01,2013-09-04 07:35:00,
2013-09-04 00:40:00,76.5,59.2,29.79,North,355,2.0,3.0,55,0.00,,,0.00,VWS V14.01,2013-09-04 07:40:00,
2013-09-04 00:45:00,76.2,59.4,29.78,North,355,0.0,4.0,56,0.00,,,0.00,VWS V14.01,2013-09-04 07:45:00,
2013-09-04 00:50:00,75.9,59.1,29.79,North,360,1.0,3.0,56,0.00,,,0.00,VWS V14.01,2013-09-04 07:50:00,
2013-09-04 00:55:00,75.7,59.4,29.79,North,351,0.0,3.0,57,0.00,,,0.00,VWS V14.01,2013-09-04 07:55:00,
2013-09-04 01:00:00,75.4,59.1,29.78,North,360,1.0,3.0,57,0.00,,,0.00,VWS V14.01,2013-09-04 08:00:00,
2013-09-04 01:05:00,75.2,59.4,29.78,North,351,2.0,3.0,58,0.00,,,0.00,VWS V14.01,2013-09-04 08:05:00,
2013-09-04 01:10:00,75.0,59.2,29.78,North,355,1.0,3.0,58,0.00,,,0.00,VWS V14.01,2013-09-04 08:10:00,
2013-09-04 01:11:00,74.9,59.1,29.78,North,355,0.0,2.0,58,0.00,,,0.00,VWS V14.01,2013-09-04 08:11:00,
2013-09-04 01:15:00,74.9,59.1,29.78,North,355,0.0,3.0,58,0.00,,,0.00,VWS V14.01,2013-09-04 08:15:00,
2013-09-04 01:16:00,74.9,59.1,29.78,North,355,2.0,2.0,58,0.00,,,0.00,VWS V14.01,2013-09-04 08:16:00,
2013-09-04 01:20:00,74.8,58.6,29.78,NNW,338,2.0,5.0,57,0.00,,,0.00,VWS V14.01,2013-09-04 08:20:00,
2013-09-04 01:21:00,74.8,58.6,29.78,NNW,329,3.0,5.0,57,0.00,,,0.00,VWS V14.01,2013-09-04 08:21:00,
2013-09-04 01:25:00,74.8,58.6,29.78,NNW,340,3.0,5.0,57,0.00,,,0.00,VWS V14.01,2013-09-04 08:25:00,
2013-09-04 01:26:00,74.9,58.2,29.78,NW,313,6.0,6.0,56,0.00,,,0.00,VWS V14.01,2013-09-04 08:26:00,
2013-09-04 01:30:00,75.1,58.3,29.78,NNW,346,3.0,6.0,56,0.00,,,0.00,VWS V14.01,2013-09-04 08:30:00,
2013-09-04 01:31:00,75.1,57.8,29.78,NNW,340,4.0,5.0,55,0.00,,,0.00,VWS V14.01,2013-09-04 08:31:00,
2013-09-04 01:35:00,75.5,57.7,29.78,NNW,341,2.0,6.0,54,0.00,,,0.00,VWS V14.01,2013-09-04 08:35:00,
2013-09-04 01:36:00,75.6,57.8,29.78,NNW,335,5.0,5.0,54,0.00,,,0.00,VWS V14.01,2013-09-04 08:36:00,
2013-09-04 01:40:00,75.9,58.1,29.78,NNW,340,4.0,7.0,54,0.00,,,0.00,VWS V14.01,2013-09-04 08:40:00,
2013-09-04 01:41:00,75.9,57.6,29.78,NNW,332,3.0,6.0,53,0.00,,,0.00,VWS V14.01,2013-09-04 08:41:00,
2013-09-04 01:45:00,76.1,57.8,29.78,NW,324,4.0,6.0,53,0.00,,,0.00,VWS V14.01,2013-09-04 08:45:00,
2013-09-04 01:46:00,76.2,57.8,29.78,NNW,343,6.0,6.0,53,0.00,,,0.00,VWS V14.01,2013-09-04 08:46:00,
2013-09-04 01:50:00,76.4,57.5,29.78,NW,318,2.0,6.0,52,0.00,,,0.00,VWS V14.01,2013-09-04 08:50:00,
2013-09-04 01:51:00,76.4,57.5,29.78,NW,321,2.0,5.0,52,0.00,,,0.00,VWS V14.01,2013-09-04 08:51:00,
2013-09-04 01:55:00,76.5,57.6,29.78,NNW,327,3.0,5.0,52,0.00,,,0.00,VWS V14.01,2013-09-04 08:55:00,
2013-09-04 01:56:00,76.5,57.6,29.78,NNW,332,2.0,3.0,52,0.00,,,0.00,VWS V14.01,2013-09-04 08:56:00,
2013-09-04 02:00:00,76.6,57.1,29.78,NNW,338,3.0,6.0,51,0.00,,,0.00,VWS V14.01,2013-09-04 09:00:00,
2013-09-04 02:01:00,76.7,57.2,29.78,NW,308,3.0,5.0,51,0.00,,,0.00,VWS V14.01,2013-09-04 09:01:00,
2013-09-04 02:05:00,77.0,57.0,29.78,NNW,331,3.0,6.0,50,0.00,,,0.00,VWS V14.01,2013-09-04 09:05:00,
2013-09-04 02:06:00,77.1,57.0,29.78,NNW,340,4.0,5.0,50,0.00,,,0.00,VWS V14.01,2013-09-04 09:06:00,
2013-09-04 02:10:00,77.5,56.9,29.77,North,355,4.0,7.0,49,0.00,,,0.00,VWS V14.01,2013-09-04 09:10:00,
2013-09-04 02:11:00,77.6,57.0,29.78,NNW,344,6.0,6.0,49,0.00,,,0.00,VWS V14.01,2013-09-04 09:11:00,
2013-09-04 02:15:00,77.9,57.2,29.78,North,355,2.0,6.0,49,0.00,,,0.00,VWS V14.01,2013-09-04 09:15:00,
2013-09-04 02:16:00,77.9,57.2,29.77,NNW,331,5.0,6.0,49,0.00,,,0.00,VWS V14.01,2013-09-04 09:16:00,
2013-09-04 02:20:00,78.0,56.7,29.77,NW,325,4.0,8.0,48,0.00,,,0.00,VWS V14.01,2013-09-04 09:20:00,
2013-09-04 02:21:00,78.0,56.7,29.77,NNW,333,3.0,7.0,48,0.00,,,0.00,VWS V14.01,2013-09-04 09:21:00,
2013-09-04 02:25:00,78.0,56.7,29.77,NNW,341,4.0,7.0,48,0.00,,,0.00,VWS V14.01,2013-09-04 09:25:00,
2013-09-04 02:26:00,78.0,56.7,29.77,NNW,327,2.0,5.0,48,0.00,,,0.00,VWS V14.01,2013-09-04 09:26:00,
2013-09-04 02:30:00,77.9,56.7,29.77,NW,321,0.0,5.0,48,0.00,,,0.00,VWS V14.01,2013-09-04 09:30:00,
2013-09-04 02:31:00,77.9,57.2,29.77,NW,321,1.0,2.0,49,0.00,,,0.00,VWS V14.01,2013-09-04 09:31:00,
2013-09-04 02:35:00,77.7,57.0,29.77,NW,321,0.0,2.0,49,0.00,,,0.00,VWS V14.01,2013-09-04 09:35:00,
2013-09-04 02:36:00,77.7,57.0,29.78,NW,321,2.0,2.0,49,0.00,,,0.00,VWS V14.01,2013-09-04 09:36:00,
2013-09-04 02:40:00,77.6,57.0,29.77,NW,315,2.0,4.0,49,0.00,,,0.00,VWS V14.01,2013-09-04 09:40:00,
2013-09-04 02:41:00,77.6,57.0,29.77,NW,310,3.0,4.0,49,0.00,,,0.00,VWS V14.01,2013-09-04 09:41:00,
2013-09-04 02:45:00,77.5,56.9,29.77,NW,321,2.0,5.0,49,0.00,,,0.00,VWS V14.01,2013-09-04 09:45:00,
2013-09-04 02:46:00,77.5,56.9,29.77,NNW,341,2.0,7.0,49,0.00,,,0.00,VWS V14.01,2013-09-04 09:46:00,
2013-09-04 02:50:00,77.5,56.9,29.77,NNW,331,5.0,7.0,49,0.00,,,0.00,VWS V14.01,2013-09-04 09:50:00,
2013-09-04 02:51:00,77.5,56.9,29.77,NNW,338,3.0,6.0,49,0.00,,,0.00,VWS V14.01,2013-09-04 09:51:00,
2013-09-04 02:55:00,77.4,57.3,29.77,NNW,337,2.0,7.0,50,0.00,,,0.00,VWS V14.01,2013-09-04 09:55:00,
2013-09-04 02:56:00,77.4,57.3,29.77,NW,320,4.0,6.0,50,0.00,,,0.00,VWS V14.01,2013-09-04 09:56:00,
2013-09-04 03:00:00,77.3,57.2,29.77,NNW,348,1.0,7.0,50,0.00,,,0.00,VWS V14.01,2013-09-04 10:00:00,
2013-09-04 03:01:00,77.2,57.1,29.77,NNW,344,2.0,3.0,50,0.00,,,0.00,VWS V14.01,2013-09-04 10:01:00,
2013-09-04 03:05:00,77.1,57.0,29.77,NNW,338,2.0,5.0,50,0.00,,,0.00,VWS V14.01,2013-09-04 10:05:00,
2013-09-04 03:15:00,76.5,57.6,29.77,NNW,342,4.0,6.0,52,0.00,,,0.00,VWS V14.01,2013-09-04 10:15:00,
2013-09-04 03:16:00,76.5,57.6,29.77,North,355,5.0,5.0,52,0.00,,,0.00,VWS V14.01,2013-09-04 10:16:00,
2013-09-04 03:20:00,76.3,57.9,29.77,North,350,4.0,7.0,53,0.00,,,0.00,VWS V14.01,2013-09-04 10:20:00,
2013-09-04 03:21:00,76.2,57.8,29.77,North,5,3.0,5.0,53,0.00,,,0.00,VWS V14.01,2013-09-04 10:21:00,
2013-09-04 03:30:00,76.0,57.7,29.77,North,360,3.0,7.0,53,0.00,,,0.00,VWS V14.01,2013-09-04 10:30:00,
2013-09-04 03:31:00,76.0,57.7,29.77,NNW,348,4.0,4.0,53,0.00,,,0.00,VWS V14.01,2013-09-04 10:31:00,
2013-09-04 03:35:00,75.9,57.6,29.77,NNW,329,2.0,6.0,53,0.00,,,0.00,VWS V14.01,2013-09-04 10:35:00,
2013-09-04 03:39:00,77.1,57.6,29.77,NNW,333,1.0,4.0,51,0.00,,,0.00,VWS V14.01,2013-09-04 10:39:00,
2013-09-04 03:40:00,75.9,57.6,29.77,NNW,347,3.0,8.0,53,0.00,,,0.00,VWS V14.01,2013-09-04 10:40:00,
2013-09-04 03:41:00,75.9,57.6,29.77,NNW,335,4.0,5.0,53,0.00,,,0.00,VWS V14.01,2013-09-04 10:41:00,
2013-09-04 03:44:00,76.8,57.3,29.77,NNW,339,3.0,4.0,51,0.00,,,0.00,VWS V14.01,2013-09-04 10:44:00,
2013-09-04 03:46:00,75.8,57.5,29.77,NNW,338,4.0,4.0,53,0.00,,,0.00,VWS V14.01,2013-09-04 10:46:00,
2013-09-04 03:50:00,75.8,57.5,29.77,NNW,339,0.0,6.0,53,0.00,,,0.00,VWS V14.01,2013-09-04 10:50:00,
2013-09-04 03:55:00,75.7,57.4,29.77,NNW,342,5.0,6.0,53,0.00,,,0.00,VWS V14.01,2013-09-04 10:55:00,
2013-09-04 03:58:00,76.1,57.8,29.77,North,355,4.0,6.0,53,0.00,,,0.00,VWS V14.01,2013-09-04 10:58:00,
2013-09-04 04:01:00,75.6,57.3,29.78,NNW,348,6.0,7.0,53,0.00,,,0.00,VWS V14.01,2013-09-04 11:01:00,
2013-09-04 04:09:00,75.9,57.6,29.77,North,349,5.0,8.0,53,0.00,,,0.00,VWS V14.01,2013-09-04 11:09:00,
2013-09-04 04:10:00,75.8,57.5,29.78,NNW,335,4.0,7.0,53,0.00,,,0.00,VWS V14.01,2013-09-04 11:10:00,
2013-09-04 04:11:00,75.8,57.5,29.78,NW,319,4.0,5.0,53,0.00,,,0.00,VWS V14.01,2013-09-04 11:11:00,
2013-09-04 04:18:00,75.8,57.5,29.77,NNW,336,3.0,8.0,53,0.00,,,0.00,VWS V14.01,2013-09-04 11:18:00,
2013-09-04 04:24:00,75.8,57.5,29.78,NNW,342,2.0,5.0,53,0.00,,,0.00,VWS V14.01,2013-09-04 11:24:00,
2013-09-04 04:26:00,75.6,57.3,29.78,NNW,343,4.0,6.0,53,0.00,,,0.00,VWS V14.01,2013-09-04 11:26:00,
2013-09-04 04:29:00,75.7,57.4,29.77,North,350,5.0,7.0,53,0.00,,,0.00,VWS V14.01,2013-09-04 11:29:00,
2013-09-04 04:30:00,75.5,57.7,29.78,NNW,344,5.0,8.0,54,0.00,,,0.00,VWS V14.01,2013-09-04 11:30:00,
2013-09-04 04:35:00,75.4,57.6,29.78,NW,324,5.0,7.0,54,0.00,,,0.00,VWS V14.01,2013-09-04 11:35:00,
2013-09-04 04:36:00,75.4,57.6,29.78,North,355,4.0,5.0,54,0.00,,,0.00,VWS V14.01,2013-09-04 11:36:00,
2013-09-04 04:38:00,75.7,57.4,29.78,NNW,348,5.0,8.0,53,0.00,,,0.00,VWS V14.01,2013-09-04 11:38:00,
2013-09-04 04:40:00,75.3,57.5,29.78,NNW,334,3.0,5.0,54,0.00,,,0.00,VWS V14.01,2013-09-04 11:40:00,
2013-09-04 04:41:00,75.3,57.5,29.78,NNW,344,5.0,5.0,54,0.00,,,0.00,VWS V14.01,2013-09-04 11:41:00,
2013-09-04 04:45:00,75.2,57.4,29.78,NNW,348,4.0,6.0,54,0.00,,,0.00,VWS V14.01,2013-09-04 11:45:00,
2013-09-04 04:46:00,75.2,57.4,29.78,NNW,340,3.0,5.0,54,0.00,,,0.00,VWS V14.01,2013-09-04 11:46:00,
2013-09-04 04:48:00,75.8,57.5,29.78,NNW,341,4.0,7.0,53,0.00,,,0.00,VWS V14.01,2013-09-04 11:48:00,
2013-09-04 04:51:00,75.1,57.3,29.78,NNW,347,2.0,4.0,54,0.00,,,0.00,VWS V14.01,2013-09-04 11:51:00,
2013-09-04 04:53:00,75.7,57.4,29.78,NNW,331,6.0,6.0,53,0.00,,,0.00,VWS V14.01,2013-09-04 11:53:00,
2013-09-04 04:55:00,74.9,57.2,29.79,NNW,336,4.0,6.0,54,0.00,,,0.00,VWS V14.01,2013-09-04 11:55:00,
2013-09-04 04:58:00,75.6,57.3,29.78,NNW,341,3.0,6.0,53,0.00,,,0.00,VWS V14.01,2013-09-04 11:58:00,
2013-09-04 05:01:00,74.9,57.2,29.79,NNW,333,4.0,5.0,54,0.00,,,0.00,VWS V14.01,2013-09-04 12:01:00,
2013-09-04 05:04:00,75.4,57.6,29.78,NNW,336,5.0,6.0,54,0.00,,,0.00,VWS V14.01,2013-09-04 12:04:00,
2013-09-04 05:15:00,75.2,57.4,29.79,NW,324,4.0,8.0,54,0.00,,,0.00,VWS V14.01,2013-09-04 12:15:00,
2013-09-04 05:16:00,75.1,57.3,29.79,NNW,344,6.0,6.0,54,0.00,,,0.00,VWS V14.01,2013-09-04 12:16:00,
2013-09-04 05:23:00,75.1,57.3,29.79,NNW,348,1.0,6.0,54,0.00,,,0.00,VWS V14.01,2013-09-04 12:23:00,
2013-09-04 05:25:00,75.0,57.2,29.79,NNW,340,4.0,7.0,54,0.00,,,0.00,VWS V14.01,2013-09-04 12:25:00,
2013-09-04 05:29:00,74.9,57.2,29.79,NNW,346,4.0,6.0,54,0.00,,,0.00,VWS V14.01,2013-09-04 12:29:00,
2013-09-04 05:35:00,74.6,57.4,29.80,NW,315,3.0,6.0,55,0.00,,,0.00,VWS V14.01,2013-09-04 12:35:00,
2013-09-04 05:36:00,74.5,57.8,29.80,NW,321,2.0,3.0,56,0.00,,,0.00,VWS V14.01,2013-09-04 12:36:00,
2013-09-04 05:38:00,74.9,57.2,29.79,North,355,6.0,7.0,54,0.00,,,0.00,VWS V14.01,2013-09-04 12:38:00,
2013-09-04 05:40:00,74.4,57.7,29.80,North,355,6.0,6.0,56,0.00,,,0.00,VWS V14.01,2013-09-04 12:40:00,
2013-09-04 05:41:00,74.3,57.6,29.80,NNW,344,4.0,6.0,56,0.00,,,0.00,VWS V14.01,2013-09-04 12:41:00,
2013-09-04 05:43:00,75.1,57.3,29.79,NNW,346,7.0,8.0,54,0.00,,,0.00,VWS V14.01,2013-09-04 12:43:00,
2013-09-04 05:45:00,74.1,57.4,29.80,NW,325,3.0,7.0,56,0.00,,,0.00,VWS V14.01,2013-09-04 12:45:00,
2013-09-04 05:46:00,74.1,57.4,29.80,NNW,348,7.0,8.0,56,0.00,,,0.00,VWS V14.01,2013-09-04 12:46:00,
2013-09-04 05:50:00,74.1,57.4,29.80,NNW,333,4.0,8.0,56,0.00,,,0.00,VWS V14.01,2013-09-04 12:50:00,
2013-09-04 05:51:00,74.2,57.5,29.80,North,350,6.0,6.0,56,0.00,,,0.00,VWS V14.01,2013-09-04 12:51:00,
2013-09-04 05:53:00,75.1,57.3,29.79,NW,323,6.0,9.0,54,0.00,,,0.00,VWS V14.01,2013-09-04 12:53:00,
2013-09-04 05:56:00,74.3,57.1,29.80,NNW,340,4.0,6.0,55,0.00,,,0.00,VWS V14.01,2013-09-04 12:56:00,
2013-09-04 05:59:00,74.9,57.7,29.80,NNW,344,7.0,7.0,55,0.00,,,0.00,VWS V14.01,2013-09-04 12:59:00,
2013-09-04 06:01:00,74.4,57.2,29.80,NNW,345,3.0,6.0,55,0.00,,,0.00,VWS V14.01,2013-09-04 13:01:00,
2013-09-04 06:04:00,74.7,57.5,29.80,NNW,331,5.0,6.0,55,0.00,,,0.00,VWS V14.01,2013-09-04 13:04:00,
2013-09-04 06:05:00,74.6,57.4,29.80,NNW,340,4.0,7.0,55,0.00,,,0.00,VWS V14.01,2013-09-04 13:05:00,
2013-09-04 06:06:00,74.6,57.4,29.80,North,5,6.0,7.0,55,0.00,,,0.00,VWS V14.01,2013-09-04 13:06:00,
2013-09-04 06:10:00,74.8,57.1,29.81,North,355,4.0,7.0,54,0.00,,,0.00,VWS V14.01,2013-09-04 13:10:00,
2013-09-04 06:11:00,74.9,57.2,29.81,North,350,5.0,7.0,54,0.00,,,0.00,VWS V14.01,2013-09-04 13:11:00,
2013-09-04 06:15:00,75.3,57.5,29.81,North,5,6.0,8.0,54,0.00,,,0.00,VWS V14.01,2013-09-04 13:15:00,
2013-09-04 06:16:00,75.4,57.6,29.81,North,355,6.0,7.0,54,0.00,,,0.00,VWS V14.01,2013-09-04 13:16:00,
2013-09-04 06:20:00,75.7,57.4,29.81,NNW,338,4.0,7.0,53,0.00,,,0.00,VWS V14.01,2013-09-04 13:20:00,
2013-09-04 06:21:00,75.8,57.5,29.81,North,350,5.0,5.0,53,0.00,,,0.00,VWS V14.01,2013-09-04 13:21:00,
2013-09-04 06:26:00,76.3,57.9,29.81,North,350,6.0,8.0,53,0.00,,,0.00,VWS V14.01,2013-09-04 13:26:00,
2013-09-04 06:28:00,74.3,57.1,29.80,NNW,338,2.0,7.0,55,0.00,,,0.00,VWS V14.01,2013-09-04 13:28:00,
2013-09-04 06:30:00,76.6,57.7,29.81,North,351,5.0,8.0,52,0.00,,,0.00,VWS V14.01,2013-09-04 13:30:00,
2013-09-04 06:31:00,76.7,57.8,29.81,North,355,6.0,7.0,52,0.00,,,0.00,VWS V14.01,2013-09-04 13:31:00,
2013-09-04 06:33:00,74.4,57.2,29.80,North,349,5.0,7.0,55,0.00,,,0.00,VWS V14.01,2013-09-04 13:33:00,
2013-09-04 06:35:00,77.0,58.0,29.81,NW,314,5.0,7.0,52,0.00,,,0.00,VWS V14.01,2013-09-04 13:35:00,
2013-09-04 06:36:00,77.0,58.0,29.81,NNW,348,4.0,6.0,52,0.00,,,0.00,VWS V14.01,2013-09-04 13:36:00,
2013-09-04 06:40:00,77.4,57.9,29.82,North,350,5.0,7.0,51,0.00,,,0.00,VWS V14.01,2013-09-04 13:40:00,
2013-09-04 06:41:00,77.5,58.0,29.82,NNW,347,2.0,6.0,51,0.00,,,0.00,VWS V14.01,2013-09-04 13:41:00,
2013-09-04 06:45:00,77.9,57.8,29.82,NW,323,6.0,7.0,50,0.00,,,0.00,VWS V14.01,2013-09-04 13:45:00,
2013-09-04 06:46:00,78.1,58.0,29.82,NNW,342,4.0,6.0,50,0.00,,,0.00,VWS V14.01,2013-09-04 13:46:00,
2013-09-04 06:50:00,78.4,58.2,29.82,NW,322,2.0,6.0,50,0.00,,,0.00,VWS V14.01,2013-09-04 13:50:00,
2013-09-04 06:51:00,78.6,58.4,29.82,NNW,330,4.0,5.0,50,0.00,,,0.00,VWS V14.01,2013-09-04 13:51:00,
2013-09-04 06:55:00,78.9,58.7,29.82,NW,325,1.0,5.0,50,0.00,,,0.00,VWS V14.01,2013-09-04 13:55:00,
2013-09-04 06:56:00,79.0,58.2,29.82,NNW,344,2.0,5.0,49,0.00,,,0.00,VWS V14.01,2013-09-04 13:56:00,
2013-09-04 06:58:00,76.1,57.8,29.81,North,360,6.0,8.0,53,0.00,,,0.00,VWS V14.01,2013-09-04 13:58:00,
2013-09-04 07:00:00,79.3,58.5,29.82,North,351,2.0,5.0,49,0.00,,,0.00,VWS V14.01,2013-09-04 14:00:00,
2013-09-04 07:01:00,79.5,58.7,29.82,North,350,2.0,5.0,49,0.00,,,0.00,VWS V14.01,2013-09-04 14:01:00,
2013-09-04 07:05:00,79.9,58.5,29.82,NNW,348,1.0,6.0,48,0.00,,,0.00,VWS V14.01,2013-09-04 14:05:00,
2013-09-04 07:06:00,80.0,58.6,29.82,NNW,338,4.0,6.0,48,0.00,,,0.00,VWS V14.01,2013-09-04 14:06:00,
2013-09-04 07:10:00,80.4,58.3,29.82,NW,325,2.0,6.0,47,0.00,,,0.00,VWS V14.01,2013-09-04 14:10:00,
2013-09-04 07:11:00,80.6,58.5,29.82,NW,323,5.0,5.0,47,0.00,,,0.00,VWS V14.01,2013-09-04 14:11:00,
2013-09-04 07:15:00,80.9,58.8,29.82,NNW,327,3.0,5.0,47,0.00,,,0.00,VWS V14.01,2013-09-04 14:15:00,
2013-09-04 07:16:00,81.2,59.1,29.82,NNW,340,3.0,5.0,47,0.00,,,0.00,VWS V14.01,2013-09-04 14:16:00,
2013-09-04 07:20:00,81.6,58.8,29.82,NNW,327,1.0,5.0,46,0.00,,,0.00,VWS V14.01,2013-09-04 14:20:00,
2013-09-04 07:21:00,81.8,59.0,29.82,NNW,329,1.0,4.0,46,0.00,,,0.00,VWS V14.01,2013-09-04 14:21:00,
2013-09-04 07:25:00,82.4,59.0,29.82,NNW,329,0.0,4.0,45,0.00,,,0.00,VWS V14.01,2013-09-04 14:25:00,
2013-09-04 07:26:00,82.7,58.6,29.82,NNW,329,0.0,2.0,44,0.00,,,0.00,VWS V14.01,2013-09-04 14:26:00,
2013-09-04 07:30:00,83.3,58.5,29.82,NNW,329,0.0,3.0,43,0.00,,,0.00,VWS V14.01,2013-09-04 14:30:00,
2013-09-04 07:31:00,83.6,58.1,29.82,NNW,329,0.0,1.0,42,0.00,,,0.00,VWS V14.01,2013-09-04 14:31:00,
2013-09-04 07:35:00,84.5,58.2,29.82,NNW,329,0.0,1.0,41,0.00,,,0.00,VWS V14.01,2013-09-04 14:35:00,
2013-09-04 07:36:00,84.8,58.5,29.82,NNW,329,1.0,1.0,41,0.00,,,0.00,VWS V14.01,2013-09-04 14:36:00,
2013-09-04 07:40:00,85.2,58.2,29.82,NNW,329,0.0,2.0,40,0.00,,,0.00,VWS V14.01,2013-09-04 14:40:00,
2013-09-04 07:41:00,85.5,57.7,29.82,NNW,329,0.0,0.0,39,0.00,,,0.00,VWS V14.01,2013-09-04 14:41:00,
2013-09-04 07:45:00,85.9,58.1,29.82,NNW,329,0.0,3.0,39,0.00,,,0.00,VWS V14.01,2013-09-04 14:45:00,
2013-09-04 07:46:00,86.0,58.2,29.82,NW,323,1.0,1.0,39,0.00,,,0.00,VWS V14.01,2013-09-04 14:46:00,
2013-09-04 07:50:00,86.7,57.3,29.82,WSW,238,0.0,3.0,37,0.00,,,0.00,VWS V14.01,2013-09-04 14:50:00,
2013-09-04 07:51:00,87.0,58.3,29.82,SW,236,0.0,4.0,38,0.00,,,0.00,VWS V14.01,2013-09-04 14:51:00,
2013-09-04 07:55:00,87.0,57.6,29.82,WSW,242,0.0,5.0,37,0.00,,,0.00,VWS V14.01,2013-09-04 14:55:00,
2013-09-04 07:56:00,87.3,58.6,29.82,WSW,242,0.0,1.0,38,0.00,,,0.00,VWS V14.01,2013-09-04 14:56:00,
2013-09-04 08:00:00,87.8,57.5,29.82,WSW,243,0.0,3.0,36,0.00,,,0.00,VWS V14.01,2013-09-04 15:00:00,
2013-09-04 08:01:00,88.1,58.6,29.82,WSW,243,0.0,2.0,37,0.00,,,0.00,VWS V14.01,2013-09-04 15:01:00,
2013-09-04 08:05:00,88.5,58.2,29.82,WSW,242,2.0,5.0,36,0.00,,,0.00,VWS V14.01,2013-09-04 15:05:00,
2013-09-04 08:06:00,88.5,58.2,29.82,WSW,244,0.0,3.0,36,0.00,,,0.00,VWS V14.01,2013-09-04 15:06:00,
2013-09-04 08:10:00,88.3,58.0,29.82,SW,215,1.0,4.0,36,0.00,,,0.00,VWS V14.01,2013-09-04 15:10:00,
2013-09-04 08:11:00,88.4,58.8,29.82,SW,215,0.0,1.0,37,0.00,,,0.00,VWS V14.01,2013-09-04 15:11:00,
2013-09-04 08:15:00,88.5,58.2,29.82,SW,214,2.0,5.0,36,0.00,,,0.00,VWS V14.01,2013-09-04 15:15:00,
2013-09-04 08:16:00,88.7,58.3,29.82,SW,214,0.0,2.0,36,0.00,,,0.00,VWS V14.01,2013-09-04 15:16:00,
2013-09-04 08:20:00,89.2,58.8,29.82,SW,214,0.0,2.0,36,0.00,,,0.00,VWS V14.01,2013-09-04 15:20:00,
2013-09-04 08:21:00,89.1,57.9,29.83,SSE,159,1.0,5.0,35,0.00,,,0.00,VWS V14.01,2013-09-04 15:21:00,
2013-09-04 08:25:00,89.2,58.0,29.83,SSE,168,1.0,5.0,35,0.00,,,0.00,VWS V14.01,2013-09-04 15:25:00,
2013-09-04 08:26:00,89.4,59.0,29.83,South,190,1.0,4.0,36,0.00,,,0.00,VWS V14.01,2013-09-04 15:26:00,
2013-09-04 08:30:00,89.7,58.4,29.83,SW,236,1.0,5.0,35,0.00,,,0.00,VWS V14.01,2013-09-04 15:30:00,
2013-09-04 08:31:00,89.9,57.8,29.83,SW,236,0.0,2.0,34,0.00,,,0.00,VWS V14.01,2013-09-04 15:31:00,
2013-09-04 08:35:00,90.0,57.9,29.83,SW,236,1.0,2.0,34,0.00,,,0.00,VWS V14.01,2013-09-04 15:35:00,
2013-09-04 08:36:00,89.7,57.6,29.83,SW,236,0.0,3.0,34,0.00,,,0.00,VWS V14.01,2013-09-04 15:36:00,
2013-09-04 08:40:00,90.3,58.2,29.83,SW,236,1.0,3.0,34,0.00,,,0.00,VWS V14.01,2013-09-04 15:40:00,
2013-09-04 08:41:00,90.5,58.3,29.83,SW,236,0.0,2.0,34,0.00,,,0.00,VWS V14.01,2013-09-04 15:41:00,
2013-09-04 08:45:00,90.8,57.8,29.83,SW,236,1.0,2.0,33,0.00,,,0.00,VWS V14.01,2013-09-04 15:45:00,
2013-09-04 08:46:00,91.0,57.9,29.83,SW,236,0.0,2.0,33,0.00,,,0.00,VWS V14.01,2013-09-04 15:46:00,
2013-09-04 08:50:00,91.7,58.5,29.83,SW,236,0.0,2.0,33,0.00,,,0.00,VWS V14.01,2013-09-04 15:50:00,
2013-09-04 08:51:00,91.9,58.7,29.83,SW,236,4.0,4.0,33,0.00,,,0.00,VWS V14.01,2013-09-04 15:51:00,
2013-09-04 08:55:00,91.6,57.6,29.83,WNW,298,0.0,5.0,32,0.00,,,0.00,VWS V14.01,2013-09-04 15:55:00,
2013-09-04 08:56:00,91.4,58.3,29.83,WNW,296,0.0,1.0,33,0.00,,,0.00,VWS V14.01,2013-09-04 15:56:00,
2013-09-04 09:00:00,91.8,57.8,29.83,WNW,296,1.0,3.0,32,0.00,,,0.00,VWS V14.01,2013-09-04 16:00:00,
2013-09-04 09:01:00,91.3,58.2,29.83,WNW,298,2.0,3.0,33,0.00,,,0.00,VWS V14.01,2013-09-04 16:01:00,
2013-09-04 09:05:00,91.1,58.0,29.83,WNW,294,1.0,3.0,33,0.00,,,0.00,VWS V14.01,2013-09-04 16:05:00,
2013-09-04 09:06:00,91.9,57.9,29.83,West,269,0.0,4.0,32,0.00,,,0.00,VWS V14.01,2013-09-04 16:06:00,
2013-09-04 09:10:00,92.6,57.6,29.83,West,269,1.0,4.0,31,0.00,,,0.00,VWS V14.01,2013-09-04 16:10:00,
2013-09-04 09:11:00,92.5,57.5,29.83,West,269,0.0,2.0,31,0.00,,,0.00,VWS V14.01,2013-09-04 16:11:00,
2013-09-04 09:15:00,92.8,57.8,29.83,West,269,0.0,4.0,31,0.00,,,0.00,VWS V14.01,2013-09-04 16:15:00,
2013-09-04 09:16:00,92.6,57.6,29.83,West,269,1.0,1.0,31,0.00,,,0.00,VWS V14.01,2013-09-04 16:16:00,
2013-09-04 09:20:00,92.0,57.9,29.83,WNW,284,0.0,2.0,32,0.00,,,0.00,VWS V14.01,2013-09-04 16:20:00,
2013-09-04 09:21:00,92.7,58.5,29.83,West,281,0.0,2.0,32,0.00,,,0.00,VWS V14.01,2013-09-04 16:21:00,
2013-09-04 09:25:00,94.0,59.7,29.83,West,281,0.0,2.0,32,0.00,,,0.00,VWS V14.01,2013-09-04 16:25:00,
2013-09-04 09:26:00,93.9,59.6,29.82,WSW,238,1.0,3.0,32,0.00,,,0.00,VWS V14.01,2013-09-04 16:26:00,
2013-09-04 09:30:00,93.5,58.4,29.82,WSW,244,0.0,3.0,31,0.00,,,0.00,VWS V14.01,2013-09-04 16:30:00,
2013-09-04 09:31:00,93.8,58.6,29.82,SW,228,0.0,5.0,31,0.00,,,0.00,VWS V14.01,2013-09-04 16:31:00,
2013-09-04 09:35:00,94.4,59.1,29.82,West,275,1.0,5.0,31,0.00,,,0.00,VWS V14.01,2013-09-04 16:35:00,
2013-09-04 09:36:00,94.8,57.6,29.82,SW,232,3.0,4.0,29,0.00,,,0.00,VWS V14.01,2013-09-04 16:36:00,
2013-09-04 09:40:00,94.3,58.1,29.82,SSW,209,1.0,4.0,30,0.00,,,0.00,VWS V14.01,2013-09-04 16:40:00,
2013-09-04 09:41:00,93.7,57.6,29.83,SSW,213,5.0,5.0,30,0.00,,,0.00,VWS V14.01,2013-09-04 16:41:00,
2013-09-04 09:45:00,94.3,58.1,29.83,SW,223,0.0,6.0,30,0.00,,,0.00,VWS V14.01,2013-09-04 16:45:00,
2013-09-04 09:46:00,94.6,58.4,29.82,SW,221,1.0,4.0,30,0.00,,,0.00,VWS V14.01,2013-09-04 16:46:00,
2013-09-04 09:50:00,95.2,58.9,29.83,SSE,163,4.0,7.0,30,0.00,,,0.00,VWS V14.01,2013-09-04 16:50:00,
2013-09-04 09:51:00,95.1,57.9,29.82,South,186,0.0,4.0,29,0.00,,,0.00,VWS V14.01,2013-09-04 16:51:00,
2013-09-04 09:55:00,95.5,58.2,29.82,SW,218,0.0,7.0,29,0.00,,,0.00,VWS V14.01,2013-09-04 16:55:00,
2013-09-04 09:56:00,95.6,58.3,29.82,SSW,202,4.0,6.0,29,0.00,,,0.00,VWS V14.01,2013-09-04 16:56:00,
2013-09-04 10:00:00,95.9,57.6,29.82,South,186,0.0,7.0,28,0.00,,,0.00,VWS V14.01,2013-09-04 17:00:00,
2013-09-04 10:01:00,96.2,57.8,29.82,South,181,0.0,3.0,28,0.00,,,0.00,VWS V14.01,2013-09-04 17:01:00,
2013-09-04 10:05:00,96.4,58.0,29.82,SW,219,2.0,7.0,28,0.00,,,0.00,VWS V14.01,2013-09-04 17:05:00,
2013-09-04 10:06:00,96.3,57.9,29.82,SSW,210,5.0,6.0,28,0.00,,,0.00,VWS V14.01,2013-09-04 17:06:00,
2013-09-04 10:10:00,96.4,59.0,29.82,SW,233,0.0,10.0,29,0.00,,,0.00,VWS V14.01,2013-09-04 17:10:00,
2013-09-04 10:11:00,96.0,58.7,29.82,WSW,245,1.0,2.0,29,0.00,,,0.00,VWS V14.01,2013-09-04 17:11:00,
2013-09-04 10:15:00,95.7,57.4,29.82,SW,221,0.0,5.0,28,0.00,,,0.00,VWS V14.01,2013-09-04 17:15:00,
2013-09-04 10:16:00,95.7,57.4,29.82,SW,223,0.0,4.0,28,0.00,,,0.00,VWS V14.01,2013-09-04 17:16:00,
2013-09-04 10:20:00,96.4,58.0,29.82,WSW,251,1.0,7.0,28,0.00,,,0.00,VWS V14.01,2013-09-04 17:20:00,
2013-09-04 10:21:00,96.2,56.8,29.82,West,268,1.0,6.0,27,0.00,,,0.00,VWS V14.01,2013-09-04 17:21:00,
2013-09-04 10:25:00,97.3,57.8,29.82,South,189,3.0,6.0,27,0.00,,,0.00,VWS V14.01,2013-09-04 17:25:00,
2013-09-04 10:26:00,97.6,57.0,29.81,SW,214,6.0,6.0,26,0.00,,,0.00,VWS V14.01,2013-09-04 17:26:00,
2013-09-04 10:30:00,97.3,55.6,29.81,SSW,213,0.0,6.0,25,0.00,,,0.00,VWS V14.01,2013-09-04 17:30:00,
2013-09-04 10:31:00,97.3,56.7,29.81,SW,217,1.0,6.0,26,0.00,,,0.00,VWS V14.01,2013-09-04 17:31:00,
2013-09-04 10:35:00,97.3,56.7,29.81,SW,229,1.0,6.0,26,0.00,,,0.00,VWS V14.01,2013-09-04 17:35:00,
2013-09-04 10:36:00,97.7,57.0,29.81,SSW,213,1.0,7.0,26,0.00,,,0.00,VWS V14.01,2013-09-04 17:36:00,
2013-09-04 10:40:00,98.5,56.6,29.81,SW,217,3.0,8.0,25,0.00,,,0.00,VWS V14.01,2013-09-04 17:40:00,
2013-09-04 10:41:00,98.7,56.8,29.81,SW,214,0.0,3.0,25,0.00,,,0.00,VWS V14.01,2013-09-04 17:41:00,
2013-09-04 10:45:00,98.3,56.5,29.81,South,183,2.0,4.0,25,0.00,,,0.00,VWS V14.01,2013-09-04 17:45:00,
2013-09-04 10:46:00,98.4,55.4,29.81,South,183,0.0,3.0,24,0.00,,,0.00,VWS V14.01,2013-09-04 17:46:00,
2013-09-04 10:50:00,98.7,55.7,29.81,SW,219,0.0,7.0,24,0.00,,,0.00,VWS V14.01,2013-09-04 17:50:00,
2013-09-04 10:51:00,98.9,54.7,29.81,North,9,3.0,4.0,23,0.00,,,0.00,VWS V14.01,2013-09-04 17:51:00,
2013-09-04 10:55:00,98.7,54.5,29.80,NNW,334,0.0,4.0,23,0.00,,,0.00,VWS V14.01,2013-09-04 17:55:00,
2013-09-04 10:56:00,99.1,53.6,29.80,West,259,0.0,4.0,22,0.00,,,0.00,VWS V14.01,2013-09-04 17:56:00,
2013-09-04 11:00:00,98.9,55.8,29.80,SSW,200,5.0,7.0,24,0.00,,,0.00,VWS V14.01,2013-09-04 18:00:00,
2013-09-04 11:01:00,99.5,56.3,29.80,SW,218,5.0,8.0,24,0.00,,,0.00,VWS V14.01,2013-09-04 18:01:00,
2013-09-04 11:05:00,99.1,54.8,29.80,SE,130,1.0,14.0,23,0.00,,,0.00,VWS V14.01,2013-09-04 18:05:00,
2013-09-04 11:06:00,98.8,54.6,29.80,SSW,192,0.0,5.0,23,0.00,,,0.00,VWS V14.01,2013-09-04 18:06:00,
2013-09-04 11:10:00,98.4,54.3,29.80,ESE,119,4.0,6.0,23,0.00,,,0.00,VWS V14.01,2013-09-04 18:10:00,
2013-09-04 11:11:00,98.1,54.0,29.80,SSE,148,1.0,6.0,23,0.00,,,0.00,VWS V14.01,2013-09-04 18:11:00,
2013-09-04 11:15:00,98.5,53.1,29.80,SSW,194,2.0,6.0,22,0.00,,,0.00,VWS V14.01,2013-09-04 18:15:00,
2013-09-04 11:16:00,97.8,52.5,29.80,SSW,212,1.0,2.0,22,0.00,,,0.00,VWS V14.01,2013-09-04 18:16:00,
2013-09-04 11:20:00,98.1,54.0,29.80,SSE,163,4.0,9.0,23,0.00,,,0.00,VWS V14.01,2013-09-04 18:20:00,
2013-09-04 11:21:00,98.3,54.2,29.80,SSW,212,3.0,7.0,23,0.00,,,0.00,VWS V14.01,2013-09-04 18:21:00,
2013-09-04 11:25:00,99.2,53.7,29.80,SW,221,7.0,10.0,22,0.00,,,0.00,VWS V14.01,2013-09-04 18:25:00,
2013-09-04 11:26:00,100.0,53.1,29.80,SSW,196,9.0,9.0,21,0.00,,,0.00,VWS V14.01,2013-09-04 18:26:00,
2013-09-04 11:30:00,100.6,53.6,29.80,WNW,287,7.0,9.0,21,0.00,,,0.00,VWS V14.01,2013-09-04 18:30:00,
2013-09-04 11:31:00,100.3,52.0,29.80,SW,223,2.0,8.0,20,0.00,,,0.00,VWS V14.01,2013-09-04 18:31:00,
2013-09-04 11:35:00,99.4,52.6,29.80,WSW,246,1.0,8.0,21,0.00,,,0.00,VWS V14.01,2013-09-04 18:35:00,
2013-09-04 11:36:00,99.0,52.3,29.80,WSW,246,0.0,1.0,21,0.00,,,0.00,VWS V14.01,2013-09-04 18:36:00,
2013-09-04 11:40:00,99.4,52.6,29.80,SW,232,0.0,4.0,21,0.00,,,0.00,VWS V14.01,2013-09-04 18:40:00,
2013-09-04 11:41:00,99.4,52.6,29.79,South,169,1.0,4.0,21,0.00,,,0.00,VWS V14.01,2013-09-04 18:41:00,
2013-09-04 11:45:00,99.1,52.4,29.79,SE,136,0.0,9.0,21,0.00,,,0.00,VWS V14.01,2013-09-04 18:45:00,
2013-09-04 11:46:00,99.8,52.9,29.79,SE,140,2.0,4.0,21,0.00,,,0.00,VWS V14.01,2013-09-04 18:46:00,
2013-09-04 11:50:00,100.9,51.1,29.79,SSE,148,4.0,9.0,19,0.00,,,0.00,VWS V14.01,2013-09-04 18:50:00,
2013-09-04 11:51:00,100.8,49.6,29.79,ENE,76,5.0,15.0,18,0.00,,,0.00,VWS V14.01,2013-09-04 18:51:00,
2013-09-04 11:55:00,100.1,50.5,29.79,SE,135,10.0,15.0,19,0.00,,,0.00,VWS V14.01,2013-09-04 18:55:00,
2013-09-04 11:56:00,99.6,50.1,29.79,SSE,155,6.0,13.0,19,0.00,,,0.00,VWS V14.01,2013-09-04 18:56:00,
2013-09-04 12:00:00,99.2,49.7,29.79,SE,134,0.0,13.0,19,0.00,,,0.00,VWS V14.01,2013-09-04 19:00:00,
2013-09-04 12:01:00,98.9,50.9,29.79,East,100,8.0,13.0,20,0.00,,,0.00,VWS V14.01,2013-09-04 19:01:00,
2013-09-04 12:05:00,99.7,51.5,29.79,SE,138,6.0,13.0,20,0.00,,,0.00,VWS V14.01,2013-09-04 19:05:00,
2013-09-04 12:06:00,100.4,50.7,29.79,South,176,9.0,13.0,19,0.00,,,0.00,VWS V14.01,2013-09-04 19:06:00,
2013-09-04 12:10:00,100.4,50.7,29.78,ESE,105,4.0,13.0,19,0.00,,,0.00,VWS V14.01,2013-09-04 19:10:00,
2013-09-04 12:11:00,99.9,50.3,29.78,SE,133,2.0,8.0,19,0.00,,,0.00,VWS V14.01,2013-09-04 19:11:00,
2013-09-04 12:15:00,99.6,50.1,29.78,SE,140,11.0,12.0,19,0.00,,,0.00,VWS V14.01,2013-09-04 19:15:00,
2013-09-04 12:16:00,100.1,50.5,29.78,SSW,194,8.0,11.0,19,0.00,,,0.00,VWS V14.01,2013-09-04 19:16:00,
2013-09-04 12:20:00,100.7,51.0,29.78,SSE,163,2.0,11.0,19,0.00,,,0.00,VWS V14.01,2013-09-04 19:20:00,
2013-09-04 12:22:00,101.1,49.8,29.78,SE,144,12.0,12.0,18,0.00,,,0.00,VWS V14.01,2013-09-04 19:22:00,
2013-09-04 12:25:00,101.5,50.2,29.78,South,186,1.0,12.0,18,0.00,,,0.00,VWS V14.01,2013-09-04 19:25:00,
2013-09-04 12:30:00,100.8,49.6,29.78,SSE,159,1.0,10.0,18,0.00,,,0.00,VWS V14.01,2013-09-04 19:30:00,
2013-09-04 12:32:00,100.5,49.3,29.78,SSE,155,4.0,8.0,18,0.00,,,0.00,VWS V14.01,2013-09-04 19:32:00,
2013-09-04 12:35:00,101.0,49.7,29.78,ESE,117,9.0,9.0,18,0.00,,,0.00,VWS V14.01,2013-09-04 19:35:00,
2013-09-04 12:37:00,100.9,49.7,29.77,SSE,155,2.0,11.0,18,0.00,,,0.00,VWS V14.01,2013-09-04 19:37:00,
2013-09-04 12:40:00,101.2,49.9,29.77,SW,230,4.0,11.0,18,0.00,,,0.00,VWS V14.01,2013-09-04 19:40:00,
2013-09-04 12:42:00,102.2,49.2,29.77,ESE,115,6.0,7.0,17,0.00,,,0.00,VWS V14.01,2013-09-04 19:42:00,
2013-09-04 12:45:00,102.1,49.1,29.77,NE,53,8.0,13.0,17,0.00,,,0.00,VWS V14.01,2013-09-04 19:45:00,
2013-09-04 12:47:00,101.7,48.8,29.78,SSE,163,7.0,13.0,17,0.00,,,0.00,VWS V14.01,2013-09-04 19:47:00,
2013-09-04 12:50:00,101.0,48.2,29.77,ESE,118,0.0,13.0,17,0.00,,,0.00,VWS V14.01,2013-09-04 19:50:00,
2013-09-04 12:52:00,100.3,49.2,29.77,ENE,61,2.0,4.0,18,0.00,,,0.00,VWS V14.01,2013-09-04 19:52:00,
2013-09-04 12:55:00,100.6,49.4,29.77,South,190,1.0,5.0,18,0.00,,,0.00,VWS V14.01,2013-09-04 19:55:00,
2013-09-04 12:57:00,101.3,48.5,29.77,SE,128,14.0,14.0,17,0.00,,,0.00,VWS V14.01,2013-09-04 19:57:00,
2013-09-04 13:00:00,101.3,48.5,29.77,SE,125,11.0,15.0,17,0.00,,,0.00,VWS V14.01,2013-09-04 20:00:00,
2013-09-04 13:02:00,100.7,49.5,29.77,SE,137,0.0,7.0,18,0.00,,,0.00,VWS V14.01,2013-09-04 20:02:00,
2013-09-04 13:05:00,101.5,48.6,29.77,SE,135,4.0,9.0,17,0.00,,,0.00,VWS V14.01,2013-09-04 20:05:00,
2013-09-04 13:07:00,101.1,48.3,29.77,SE,138,6.0,6.0,17,0.00,,,0.00,VWS V14.01,2013-09-04 20:07:00,
2013-09-04 13:10:00,100.5,49.3,29.76,ESE,104,7.0,11.0,18,0.00,,,0.00,VWS V14.01,2013-09-04 20:10:00,
2013-09-04 13:12:00,100.7,49.5,29.76,ENE,58,10.0,12.0,18,0.00,,,0.00,VWS V14.01,2013-09-04 20:12:00,
2013-09-04 13:15:00,101.0,48.2,29.76,ESE,107,2.0,12.0,17,0.00,,,0.00,VWS V14.01,2013-09-04 20:15:00,
2013-09-04 13:17:00,100.8,49.6,29.76,SE,126,7.0,11.0,18,0.00,,,0.00,VWS V14.01,2013-09-04 20:17:00,
2013-09-04 13:20:00,100.5,49.3,29.76,SE,126,0.0,11.0,18,0.00,,,0.00,VWS V14.01,2013-09-04 20:20:00,
2013-09-04 13:22:00,100.5,49.3,29.76,NE,40,1.0,5.0,18,0.00,,,0.00,VWS V14.01,2013-09-04 20:22:00,
2013-09-04 13:25:00,100.9,48.1,29.76,ESE,122,6.0,11.0,17,0.00,,,0.00,VWS V14.01,2013-09-04 20:25:00,
2013-09-04 13:27:00,100.8,48.0,29.76,ENE,66,3.0,8.0,17,0.00,,,0.00,VWS V14.01,2013-09-04 20:27:00,
2013-09-04 13:30:00,100.7,48.0,29.75,East,101,0.0,8.0,17,0.00,,,0.00,VWS V14.01,2013-09-04 20:30:00,
2013-09-04 13:32:00,101.3,48.5,29.76,East,99,2.0,8.0,17,0.00,,,0.00,VWS V14.01,2013-09-04 20:32:00,
2013-09-04 13:35:00,100.6,49.4,29.75,NNE,32,5.0,11.0,18,0.00,,,0.00,VWS V14.01,2013-09-04 20:35:00,
2013-09-04 13:37:00,100.6,49.4,29.75,ENE,72,1.0,11.0,18,0.00,,,0.00,VWS V14.01,2013-09-04 20:37:00,
2013-09-04 13:40:00,100.8,49.6,29.75,SE,142,4.0,11.0,18,0.00,,,0.00,VWS V14.01,2013-09-04 20:40:00,
2013-09-04 13:42:00,100.8,49.6,29.75,East,84,2.0,10.0,18,0.00,,,0.00,VWS V14.01,2013-09-04 20:42:00,
2013-09-04 13:45:00,100.9,49.7,29.75,ESE,104,0.0,10.0,18,0.00,,,0.00,VWS V14.01,2013-09-04 20:45:00,
2013-09-04 13:47:00,100.5,47.8,29.75,NE,38,0.0,4.0,17,0.00,,,0.00,VWS V14.01,2013-09-04 20:47:00,
2013-09-04 13:50:00,99.7,48.7,29.75,NE,38,3.0,4.0,18,0.00,,,0.00,VWS V14.01,2013-09-04 20:50:00,
2013-09-04 13:52:00,99.3,49.8,29.74,East,96,0.0,5.0,19,0.00,,,0.00,VWS V14.01,2013-09-04 20:52:00,
2013-09-04 13:55:00,99.1,49.7,29.74,East,88,5.0,8.0,19,0.00,,,0.00,VWS V14.01,2013-09-04 20:55:00,
2013-09-04 13:57:00,99.0,49.6,29.74,SE,125,2.0,7.0,19,0.00,,,0.00,VWS V14.01,2013-09-04 20:57:00,
2013-09-04 14:00:00,98.8,49.4,29.74,ESE,122,0.0,9.0,19,0.00,,,0.00,VWS V14.01,2013-09-04 21:00:00,
2013-09-04 14:02:00,98.5,49.2,29.74,NE,35,2.0,5.0,19,0.00,,,0.00,VWS V14.01,2013-09-04 21:02:00,
2013-09-04 14:05:00,98.3,47.6,29.74,ESE,109,0.0,5.0,18,0.00,,,0.00,VWS V14.01,2013-09-04 21:05:00,
2013-09-04 14:07:00,98.3,49.0,29.74,ESE,103,0.0,4.0,19,0.00,,,0.00,VWS V14.01,2013-09-04 21:07:00,
2013-09-04 14:10:00,98.2,48.9,29.74,ESE,123,0.0,4.0,19,0.00,,,0.00,VWS V14.01,2013-09-04 21:10:00,
2013-09-04 14:12:00,98.3,50.4,29.74,East,100,1.0,2.0,20,0.00,,,0.00,VWS V14.01,2013-09-04 21:12:00,
2013-09-04 14:15:00,98.0,50.1,29.74,SSE,157,4.0,8.0,20,0.00,,,0.00,VWS V14.01,2013-09-04 21:15:00,
2013-09-04 14:17:00,97.8,50.0,29.74,SSE,158,2.0,6.0,20,0.00,,,0.00,VWS V14.01,2013-09-04 21:17:00,
2013-09-04 14:20:00,97.7,49.9,29.74,SE,145,7.0,8.0,20,0.00,,,0.00,VWS V14.01,2013-09-04 21:20:00,
2013-09-04 14:22:00,97.7,49.9,29.74,SE,137,4.0,7.0,20,0.00,,,0.00,VWS V14.01,2013-09-04 21:22:00,
2013-09-04 14:25:00,97.6,49.8,29.74,SE,128,4.0,7.0,20,0.00,,,0.00,VWS V14.01,2013-09-04 21:25:00,
2013-09-04 14:27:00,97.5,49.7,29.74,SE,138,1.0,6.0,20,0.00,,,0.00,VWS V14.01,2013-09-04 21:27:00,
2013-09-04 14:30:00,97.4,49.7,29.74,SE,128,6.0,9.0,20,0.00,,,0.00,VWS V14.01,2013-09-04 21:30:00,
2013-09-04 14:32:00,97.3,49.6,29.74,SE,138,2.0,6.0,20,0.00,,,0.00,VWS V14.01,2013-09-04 21:32:00,
2013-09-04 14:35:00,97.2,46.7,29.74,ENE,78,4.0,8.0,18,0.00,,,0.00,VWS V14.01,2013-09-04 21:35:00,
2013-09-04 14:37:00,97.2,46.7,29.73,SSE,159,4.0,5.0,18,0.00,,,0.00,VWS V14.01,2013-09-04 21:37:00,
2013-09-04 14:40:00,97.6,47.0,29.73,SE,134,2.0,7.0,18,0.00,,,0.00,VWS V14.01,2013-09-04 21:40:00,
2013-09-04 14:42:00,97.7,47.1,29.73,SE,131,1.0,7.0,18,0.00,,,0.00,VWS V14.01,2013-09-04 21:42:00,
2013-09-04 14:45:00,98.2,47.5,29.73,SE,138,2.0,9.0,18,0.00,,,0.00,VWS V14.01,2013-09-04 21:45:00,
2013-09-04 14:47:00,98.8,48.0,29.73,East,92,5.0,7.0,18,0.00,,,0.00,VWS V14.01,2013-09-04 21:47:00,
2013-09-04 14:50:00,98.9,49.5,29.73,East,86,3.0,8.0,19,0.00,,,0.00,VWS V14.01,2013-09-04 21:50:00,
2013-09-04 14:52:00,98.6,49.2,29.73,SE,132,7.0,8.0,19,0.00,,,0.00,VWS V14.01,2013-09-04 21:52:00,
2013-09-04 14:55:00,98.6,49.2,29.73,East,90,4.0,11.0,19,0.00,,,0.00,VWS V14.01,2013-09-04 21:55:00,
2013-09-04 14:57:00,99.1,49.7,29.73,SE,126,5.0,9.0,19,0.00,,,0.00,VWS V14.01,2013-09-04 21:57:00,
2013-09-04 15:00:00,99.3,49.8,29.72,ESE,114,2.0,11.0,19,0.00,,,0.00,VWS V14.01,2013-09-04 22:00:00,
2013-09-04 15:02:00,99.3,49.8,29.73,SE,146,0.0,9.0,19,0.00,,,0.00,VWS V14.01,2013-09-04 22:02:00,
2013-09-04 15:05:00,99.4,49.9,29.73,SE,127,4.0,9.0,19,0.00,,,0.00,VWS V14.01,2013-09-04 22:05:00,
2013-09-04 15:07:00,99.3,49.8,29.73,SE,144,1.0,8.0,19,0.00,,,0.00,VWS V14.01,2013-09-04 22:07:00,
2013-09-04 15:10:00,99.1,49.7,29.72,East,85,0.0,8.0,19,0.00,,,0.00,VWS V14.01,2013-09-04 22:10:00,
2013-09-04 15:12:00,99.0,49.6,29.72,SE,136,0.0,4.0,19,0.00,,,0.00,VWS V14.01,2013-09-04 22:12:00,
2013-09-04 15:15:00,98.7,50.7,29.72,ESE,117,0.0,7.0,20,0.00,,,0.00,VWS V14.01,2013-09-04 22:15:00,
2013-09-04 15:17:00,98.6,50.6,29.72,SE,128,2.0,5.0,20,0.00,,,0.00,VWS V14.01,2013-09-04 22:17:00,
2013-09-04 15:20:00,98.1,50.2,29.72,SE,131,6.0,8.0,20,0.00,,,0.00,VWS V14.01,2013-09-04 22:20:00,
2013-09-04 15:22:00,98.5,49.2,29.72,ESE,110,9.0,9.0,19,0.00,,,0.00,VWS V14.01,2013-09-04 22:22:00,
2013-09-04 15:25:00,99.2,48.3,29.72,SE,142,5.0,10.0,18,0.00,,,0.00,VWS V14.01,2013-09-04 22:25:00,
2013-09-04 15:27:00,99.2,46.8,29.72,SE,128,8.0,8.0,17,0.00,,,0.00,VWS V14.01,2013-09-04 22:27:00,
2013-09-04 15:30:00,98.6,46.3,29.72,ESE,108,5.0,8.0,17,0.00,,,0.00,VWS V14.01,2013-09-04 22:30:00,
2013-09-04 15:32:00,99.1,46.7,29.72,SE,146,5.0,14.0,17,0.00,,,0.00,VWS V14.01,2013-09-04 22:32:00,
2013-09-04 15:35:00,99.5,47.0,29.72,ESE,121,7.0,14.0,17,0.00,,,0.00,VWS V14.01,2013-09-04 22:35:00,
2013-09-04 15:37:00,99.0,46.6,29.72,SSE,148,2.0,13.0,17,0.00,,,0.00,VWS V14.01,2013-09-04 22:37:00,
2013-09-04 15:40:00,98.3,47.6,29.72,SSW,194,1.0,13.0,18,0.00,,,0.00,VWS V14.01,2013-09-04 22:40:00,
2013-09-04 15:42:00,98.5,46.2,29.71,SE,143,8.0,11.0,17,0.00,,,0.00,VWS V14.01,2013-09-04 22:42:00,
2013-09-04 15:45:00,98.7,44.8,29.72,South,180,1.0,12.0,16,0.00,,,0.00,VWS V14.01,2013-09-04 22:45:00,
2013-09-04 15:47:00,99.0,45.0,29.72,SSE,160,6.0,6.0,16,0.00,,,0.00,VWS V14.01,2013-09-04 22:47:00,
2013-09-04 15:50:00,99.0,45.0,29.72,East,86,1.0,6.0,16,0.00,,,0.00,VWS V14.01,2013-09-04 22:50:00,
2013-09-04 15:52:00,98.9,46.5,29.72,SSE,150,4.0,5.0,17,0.00,,,0.00,VWS V14.01,2013-09-04 22:52:00,
2013-09-04 15:55:00,99.0,46.6,29.72,ESE,123,7.0,8.0,17,0.00,,,0.00,VWS V14.01,2013-09-04 22:55:00,
2013-09-04 15:57:00,98.8,46.5,29.72,SSE,148,1.0,9.0,17,0.00,,,0.00,VWS V14.01,2013-09-04 22:57:00,
2013-09-04 16:00:00,99.3,46.8,29.72,SE,125,6.0,9.0,17,0.00,,,0.00,VWS V14.01,2013-09-04 23:00:00,
2013-09-04 16:02:00,99.4,45.3,29.72,SE,133,0.0,7.0,16,0.00,,,0.00,VWS V14.01,2013-09-04 23:02:00,
2013-09-04 16:05:00,99.7,45.6,29.72,South,186,3.0,7.0,16,0.00,,,0.00,VWS V14.01,2013-09-04 23:05:00,
2013-09-04 16:07:00,99.7,45.6,29.71,SSE,153,6.0,10.0,16,0.00,,,0.00,VWS V14.01,2013-09-04 23:07:00,
2013-09-04 16:10:00,99.7,47.2,29.72,SSE,149,4.0,10.0,17,0.00,,,0.00,VWS V14.01,2013-09-04 23:10:00,
2013-09-04 16:12:00,99.7,45.6,29.72,SE,138,2.0,10.0,16,0.00,,,0.00,VWS V14.01,2013-09-04 23:12:00,
2013-09-04 16:15:00,99.3,46.8,29.72,SE,124,0.0,10.0,17,0.00,,,0.00,VWS V14.01,2013-09-04 23:15:00,
2013-09-04 16:17:00,98.9,46.5,29.71,SSE,148,0.0,2.0,17,0.00,,,0.00,VWS V14.01,2013-09-04 23:17:00,
2013-09-04 16:20:00,98.4,46.1,29.71,SE,132,5.0,7.0,17,0.00,,,0.00,VWS V14.01,2013-09-04 23:20:00,
2013-09-04 16:22:00,98.0,47.3,29.71,SE,125,5.0,7.0,18,0.00,,,0.00,VWS V14.01,2013-09-04 23:22:00,
2013-09-04 16:25:00,98.0,47.3,29.71,South,182,0.0,7.0,18,0.00,,,0.00,VWS V14.01,2013-09-04 23:25:00,
2013-09-04 16:27:00,98.1,47.4,29.71,SE,143,0.0,5.0,18,0.00,,,0.00,VWS V14.01,2013-09-04 23:27:00,
2013-09-04 16:30:00,98.3,47.6,29.71,SE,133,2.0,8.0,18,0.00,,,0.00,VWS V14.01,2013-09-04 23:30:00,
2013-09-04 16:32:00,98.4,47.6,29.71,SSE,147,4.0,8.0,18,0.00,,,0.00,VWS V14.01,2013-09-04 23:32:00,
2013-09-04 16:35:00,98.3,47.6,29.71,SE,138,1.0,8.0,18,0.00,,,0.00,VWS V14.01,2013-09-04 23:35:00,
2013-09-04 16:37:00,98.2,47.5,29.71,SE,130,2.0,2.0,18,0.00,,,0.00,VWS V14.01,2013-09-04 23:37:00,
2013-09-04 16:40:00,98.3,47.6,29.71,SSE,161,5.0,5.0,18,0.00,,,0.00,VWS V14.01,2013-09-04 23:40:00,
2013-09-04 16:42:00,98.3,47.6,29.71,SE,142,4.0,7.0,18,0.00,,,0.00,VWS V14.01,2013-09-04 23:42:00,
2013-09-04 16:45:00,98.0,47.3,29.71,ENE,57,3.0,7.0,18,0.00,,,0.00,VWS V14.01,2013-09-04 23:45:00,
2013-09-04 16:47:00,97.9,47.2,29.71,NE,43,3.0,6.0,18,0.00,,,0.00,VWS V14.01,2013-09-04 23:47:00,
2013-09-04 16:50:00,97.9,48.7,29.71,ESE,121,4.0,6.0,19,0.00,,,0.00,VWS V14.01,2013-09-04 23:50:00,
2013-09-04 16:52:00,97.9,48.7,29.71,SE,138,1.0,6.0,19,0.00,,,0.00,VWS V14.01,2013-09-04 23:52:00,
2013-09-04 16:55:00,97.8,48.6,29.71,ESE,114,2.0,6.0,19,0.00,,,0.00,VWS V14.01,2013-09-04 23:55:00,
2013-09-04 16:57:00,97.6,47.0,29.71,SE,124,5.0,9.0,18,0.00,,,0.00,VWS V14.01,2013-09-04 23:57:00,
2013-09-04 17:00:00,97.4,48.3,29.71,ESE,115,5.0,9.0,19,0.00,,,0.00,VWS V14.01,2013-09-05 00:00:00,
2013-09-04 17:02:00,97.3,48.2,29.71,SE,134,2.0,6.0,19,0.00,,,0.00,VWS V14.01,2013-09-05 00:02:00,
2013-09-04 17:05:00,97.4,46.8,29.71,ESE,114,8.0,9.0,18,0.00,,,0.00,VWS V14.01,2013-09-05 00:05:00,
2013-09-04 17:07:00,97.3,46.8,29.71,SE,144,5.0,9.0,18,0.00,,,0.00,VWS V14.01,2013-09-05 00:07:00,
2013-09-04 17:10:00,97.2,46.7,29.71,SE,146,1.0,9.0,18,0.00,,,0.00,VWS V14.01,2013-09-05 00:10:00,
2013-09-04 17:12:00,97.1,46.6,29.71,SE,138,1.0,5.0,18,0.00,,,0.00,VWS V14.01,2013-09-05 00:12:00,
2013-09-04 17:15:00,97.1,46.6,29.71,ESE,120,7.0,7.0,18,0.00,,,0.00,VWS V14.01,2013-09-05 00:15:00,
2013-09-04 17:17:00,96.9,46.4,29.71,SE,140,2.0,9.0,18,0.00,,,0.00,VWS V14.01,2013-09-05 00:17:00,
2013-09-04 17:20:00,96.9,46.4,29.71,SSE,153,1.0,9.0,18,0.00,,,0.00,VWS V14.01,2013-09-05 00:20:00,
2013-09-04 17:22:00,96.7,46.3,29.71,SE,127,4.0,6.0,18,0.00,,,0.00,VWS V14.01,2013-09-05 00:22:00,
2013-09-04 17:25:00,96.6,46.2,29.71,ESE,114,6.0,6.0,18,0.00,,,0.00,VWS V14.01,2013-09-05 00:25:00,
2013-09-04 17:27:00,96.5,46.1,29.71,South,176,2.0,10.0,18,0.00,,,0.00,VWS V14.01,2013-09-05 00:27:00,
2013-09-04 17:30:00,96.4,46.0,29.71,SSE,149,4.0,10.0,18,0.00,,,0.00,VWS V14.01,2013-09-05 00:30:00,
2013-09-04 17:32:00,96.3,47.4,29.71,SSE,165,4.0,4.0,19,0.00,,,0.00,VWS V14.01,2013-09-05 00:32:00,
2013-09-04 17:35:00,96.2,47.3,29.71,SSE,165,1.0,4.0,19,0.00,,,0.00,VWS V14.01,2013-09-05 00:35:00,
2013-09-04 17:37:00,96.1,47.2,29.71,ESE,121,4.0,5.0,19,0.00,,,0.00,VWS V14.01,2013-09-05 00:37:00,
2013-09-04 17:40:00,96.0,47.1,29.71,South,171,2.0,6.0,19,0.00,,,0.00,VWS V14.01,2013-09-05 00:40:00,
2013-09-04 17:42:00,95.7,46.9,29.71,East,101,2.0,8.0,19,0.00,,,0.00,VWS V14.01,2013-09-05 00:42:00,
2013-09-04 17:45:00,95.6,48.2,29.71,SE,135,1.0,8.0,20,0.00,,,0.00,VWS V14.01,2013-09-05 00:45:00,
2013-09-04 17:47:00,95.4,48.0,29.71,SE,138,2.0,7.0,20,0.00,,,0.00,VWS V14.01,2013-09-05 00:47:00,
2013-09-04 17:50:00,95.2,47.8,29.71,SE,138,2.0,7.0,20,0.00,,,0.00,VWS V14.01,2013-09-05 00:50:00,
2013-09-04 17:52:00,94.9,47.6,29.72,SE,140,1.0,2.0,20,0.00,,,0.00,VWS V14.01,2013-09-05 00:52:00,
2013-09-04 17:55:00,94.7,47.4,29.71,SSE,155,2.0,4.0,20,0.00,,,0.00,VWS V14.01,2013-09-05 00:55:00,
2013-09-04 17:57:00,94.4,47.2,29.72,ESE,121,5.0,7.0,20,0.00,,,0.00,VWS V14.01,2013-09-05 00:57:00,
2013-09-04 18:00:00,94.3,47.1,29.72,SE,146,0.0,7.0,20,0.00,,,0.00,VWS V14.01,2013-09-05 01:00:00,
2013-09-04 18:02:00,94.1,47.0,29.71,SE,146,1.0,2.0,20,0.00,,,0.00,VWS V14.01,2013-09-05 01:02:00,
2013-09-04 18:05:00,93.8,46.7,29.72,SE,127,0.0,6.0,20,0.00,,,0.00,VWS V14.01,2013-09-05 01:05:00,
2013-09-04 18:07:00,93.7,46.6,29.72,ESE,109,0.0,4.0,20,0.00,,,0.00,VWS V14.01,2013-09-05 01:07:00,
2013-09-04 18:10:00,93.7,46.6,29.72,SE,132,2.0,5.0,20,0.00,,,0.00,VWS V14.01,2013-09-05 01:10:00,
2013-09-04 18:12:00,93.7,46.6,29.72,SE,132,0.0,4.0,20,0.00,,,0.00,VWS V14.01,2013-09-05 01:12:00,
2013-09-04 18:15:00,93.4,46.4,29.72,SE,132,0.0,4.0,20,0.00,,,0.00,VWS V14.01,2013-09-05 01:15:00,
2013-09-04 18:17:00,93.1,47.4,29.72,ESE,120,0.0,4.0,21,0.00,,,0.00,VWS V14.01,2013-09-05 01:17:00,
2013-09-04 18:20:00,92.9,47.2,29.72,ESE,119,4.0,5.0,21,0.00,,,0.00,VWS V14.01,2013-09-05 01:20:00,
2013-09-04 18:22:00,92.8,47.2,29.72,SE,124,5.0,7.0,21,0.00,,,0.00,VWS V14.01,2013-09-05 01:22:00,
2013-09-04 18:25:00,92.9,47.2,29.72,SE,135,2.0,7.0,21,0.00,,,0.00,VWS V14.01,2013-09-05 01:25:00,
2013-09-04 18:27:00,92.8,47.2,29.72,SE,135,0.0,4.0,21,0.00,,,0.00,VWS V14.01,2013-09-05 01:27:00,
2013-09-04 18:30:00,92.9,46.0,29.72,ESE,123,4.0,8.0,20,0.00,,,0.00,VWS V14.01,2013-09-05 01:30:00,
2013-09-04 18:32:00,93.0,46.0,29.72,SE,136,1.0,8.0,20,0.00,,,0.00,VWS V14.01,2013-09-05 01:32:00,
2013-09-04 18:35:00,93.1,46.1,29.72,SE,132,4.0,8.0,20,0.00,,,0.00,VWS V14.01,2013-09-05 01:35:00,
2013-09-04 18:37:00,93.2,46.2,29.73,SE,132,0.0,4.0,20,0.00,,,0.00,VWS V14.01,2013-09-05 01:37:00,
2013-09-04 18:40:00,92.9,46.0,29.73,SE,132,0.0,4.0,20,0.00,,,0.00,VWS V14.01,2013-09-05 01:40:00,
2013-09-04 18:42:00,92.5,45.6,29.73,SE,132,0.0,0.0,20,0.00,,,0.00,VWS V14.01,2013-09-05 01:42:00,
2013-09-04 18:45:00,92.2,46.7,29.73,SE,132,0.0,1.0,21,0.00,,,0.00,VWS V14.01,2013-09-05 01:45:00,
2013-09-04 18:47:00,91.8,46.3,29.73,SE,132,0.0,1.0,21,0.00,,,0.00,VWS V14.01,2013-09-05 01:47:00,
2013-09-04 18:50:00,91.7,46.3,29.73,SE,131,0.0,2.0,21,0.00,,,0.00,VWS V14.01,2013-09-05 01:50:00,
2013-09-04 18:52:00,91.8,45.1,29.73,ESE,120,0.0,2.0,20,0.00,,,0.00,VWS V14.01,2013-09-05 01:52:00,
2013-09-04 18:55:00,91.9,45.1,29.73,ESE,111,0.0,4.0,20,0.00,,,0.00,VWS V14.01,2013-09-05 01:55:00,
2013-09-04 18:57:00,91.9,45.1,29.73,East,100,0.0,2.0,20,0.00,,,0.00,VWS V14.01,2013-09-05 01:57:00,
2013-09-04 19:00:00,91.6,46.2,29.73,East,100,0.0,2.0,21,0.00,,,0.00,VWS V14.01,2013-09-05 02:00:00,
2013-09-04 19:02:00,91.2,45.8,29.74,East,100,0.0,1.0,21,0.00,,,0.00,VWS V14.01,2013-09-05 02:02:00,
2013-09-04 19:05:00,90.8,46.8,29.74,East,100,0.0,1.0,22,0.00,,,0.00,VWS V14.01,2013-09-05 02:05:00,
2013-09-04 19:07:00,90.6,46.6,29.74,East,100,0.0,5.0,22,0.00,,,0.00,VWS V14.01,2013-09-05 02:07:00,
2013-09-04 19:10:00,90.4,46.4,29.74,East,100,0.0,5.0,22,0.00,,,0.00,VWS V14.01,2013-09-05 02:10:00,
2013-09-04 19:12:00,90.2,46.2,29.74,East,100,0.0,1.0,22,0.00,,,0.00,VWS V14.01,2013-09-05 02:12:00,
2013-09-04 19:15:00,89.9,47.2,29.74,East,100,0.0,1.0,23,0.00,,,0.00,VWS V14.01,2013-09-05 02:15:00,
2013-09-04 19:17:00,89.6,46.9,29.74,East,100,0.0,1.0,23,0.00,,,0.00,VWS V14.01,2013-09-05 02:17:00,
2013-09-04 19:20:00,89.4,46.8,29.74,East,100,0.0,1.0,23,0.00,,,0.00,VWS V14.01,2013-09-05 02:20:00,
2013-09-04 19:22:00,89.1,47.6,29.74,East,100,0.0,1.0,24,0.00,,,0.00,VWS V14.01,2013-09-05 02:22:00,
2013-09-04 19:25:00,89.0,47.6,29.75,East,100,0.0,1.0,24,0.00,,,0.00,VWS V14.01,2013-09-05 02:25:00,
2013-09-04 19:27:00,88.8,47.4,29.75,East,100,0.0,1.0,24,0.00,,,0.00,VWS V14.01,2013-09-05 02:27:00,
2013-09-04 19:30:00,88.6,47.2,29.75,East,100,0.0,1.0,24,0.00,,,0.00,VWS V14.01,2013-09-05 02:30:00,
2013-09-04 19:32:00,88.3,47.0,29.75,East,100,0.0,0.0,24,0.00,,,0.00,VWS V14.01,2013-09-05 02:32:00,
2013-09-04 19:35:00,88.1,47.9,29.75,East,100,0.0,0.0,25,0.00,,,0.00,VWS V14.01,2013-09-05 02:35:00,
2013-09-04 19:37:00,87.6,47.5,29.75,East,100,0.0,0.0,25,0.00,,,0.00,VWS V14.01,2013-09-05 02:37:00,
2013-09-04 19:40:00,87.3,47.2,29.75,East,100,0.0,0.0,25,0.00,,,0.00,VWS V14.01,2013-09-05 02:40:00,
2013-09-04 19:42:00,86.9,46.9,29.75,East,100,0.0,0.0,25,0.00,,,0.00,VWS V14.01,2013-09-05 02:42:00,
2013-09-04 19:45:00,86.7,47.8,29.75,East,100,0.0,0.0,26,0.00,,,0.00,VWS V14.01,2013-09-05 02:45:00,
2013-09-04 19:47:00,86.4,47.5,29.75,East,100,0.0,0.0,26,0.00,,,0.00,VWS V14.01,2013-09-05 02:47:00,
2013-09-04 19:50:00,86.1,47.2,29.75,East,100,0.0,0.0,26,0.00,,,0.00,VWS V14.01,2013-09-05 02:50:00,
2013-09-04 19:52:00,86.0,47.2,29.75,East,100,0.0,0.0,26,0.00,,,0.00,VWS V14.01,2013-09-05 02:52:00,
2013-09-04 19:55:00,85.9,47.1,29.76,East,100,0.0,0.0,26,0.00,,,0.00,VWS V14.01,2013-09-05 02:55:00,
2013-09-04 19:57:00,85.7,46.9,29.76,East,100,0.0,1.0,26,0.00,,,0.00,VWS V14.01,2013-09-05 02:57:00,
2013-09-04 20:00:00,85.6,46.8,29.76,East,100,0.0,1.0,26,0.00,,,0.00,VWS V14.01,2013-09-05 03:00:00,
2013-09-04 20:02:00,85.4,46.7,29.76,East,100,0.0,1.0,26,0.00,,,0.00,VWS V14.01,2013-09-05 03:02:00,
2013-09-04 20:05:00,85.2,47.5,29.76,East,100,0.0,1.0,27,0.00,,,0.00,VWS V14.01,2013-09-05 03:05:00,
2013-09-04 20:07:00,85.0,47.3,29.76,East,100,0.0,0.0,27,0.00,,,0.00,VWS V14.01,2013-09-05 03:07:00,
2013-09-04 20:10:00,84.8,47.1,29.76,East,100,0.0,0.0,27,0.00,,,0.00,VWS V14.01,2013-09-05 03:10:00,
2013-09-04 20:12:00,84.5,46.9,29.76,East,100,0.0,1.0,27,0.00,,,0.00,VWS V14.01,2013-09-05 03:12:00,
2013-09-04 20:15:00,84.5,47.8,29.76,East,100,0.0,1.0,28,0.00,,,0.00,VWS V14.01,2013-09-05 03:15:00,
2013-09-04 20:17:00,84.2,47.6,29.76,East,100,0.0,0.0,28,0.00,,,0.00,VWS V14.01,2013-09-05 03:17:00,
2013-09-04 20:20:00,83.9,47.3,29.76,East,100,0.0,0.0,28,0.00,,,0.00,VWS V14.01,2013-09-05 03:20:00,
2013-09-04 20:23:00,83.4,47.8,29.77,East,100,0.0,1.0,29,0.00,,,0.00,VWS V14.01,2013-09-05 03:23:00,
2013-09-04 20:25:00,82.9,47.4,29.77,East,100,0.0,1.0,29,0.00,,,0.00,VWS V14.01,2013-09-05 03:25:00,
2013-09-04 20:28:00,82.5,47.1,29.76,East,100,1.0,2.0,29,0.00,,,0.00,VWS V14.01,2013-09-05 03:28:00,
2013-09-04 20:30:00,82.3,47.8,29.77,East,100,1.0,2.0,30,0.00,,,0.00,VWS V14.01,2013-09-05 03:30:00,
2013-09-04 20:33:00,82.1,47.6,29.77,East,100,0.0,1.0,30,0.00,,,0.00,VWS V14.01,2013-09-05 03:33:00,
2013-09-04 20:35:00,82.0,47.5,29.77,East,100,0.0,1.0,30,0.00,,,0.00,VWS V14.01,2013-09-05 03:35:00,
2013-09-04 20:38:00,81.8,48.2,29.77,East,100,0.0,0.0,31,0.00,,,0.00,VWS V14.01,2013-09-05 03:38:00,
2013-09-04 20:40:00,81.6,48.1,29.77,East,100,0.0,1.0,31,0.00,,,0.00,VWS V14.01,2013-09-05 03:40:00,
2013-09-04 20:43:00,81.4,47.9,29.77,East,100,1.0,2.0,31,0.00,,,0.00,VWS V14.01,2013-09-05 03:43:00,
2013-09-04 20:45:00,81.4,47.9,29.77,East,100,0.0,2.0,31,0.00,,,0.00,VWS V14.01,2013-09-05 03:45:00,
2013-09-04 20:48:00,81.6,48.1,29.77,East,100,1.0,4.0,31,0.00,,,0.00,VWS V14.01,2013-09-05 03:48:00,
2013-09-04 20:50:00,81.8,48.2,29.77,East,100,2.0,4.0,31,0.00,,,0.00,VWS V14.01,2013-09-05 03:50:00,
2013-09-04 20:53:00,82.1,47.6,29.77,East,100,0.0,2.0,30,0.00,,,0.00,VWS V14.01,2013-09-05 03:53:00,
2013-09-04 20:55:00,82.2,47.7,29.77,East,100,0.0,2.0,30,0.00,,,0.00,VWS V14.01,2013-09-05 03:55:00,
2013-09-04 20:58:00,82.3,47.8,29.77,East,100,0.0,1.0,30,0.00,,,0.00,VWS V14.01,2013-09-05 03:58:00,
2013-09-04 21:00:00,82.3,47.8,29.77,East,100,0.0,1.0,30,0.00,,,0.00,VWS V14.01,2013-09-05 04:00:00,
2013-09-04 21:03:00,82.0,47.5,29.77,East,100,0.0,0.0,30,0.00,,,0.00,VWS V14.01,2013-09-05 04:03:00,
2013-09-04 21:05:00,81.8,48.2,29.77,East,100,0.0,1.0,31,0.00,,,0.00,VWS V14.01,2013-09-05 04:05:00,
2013-09-04 21:08:00,82.0,47.5,29.77,East,100,1.0,2.0,30,0.00,,,0.00,VWS V14.01,2013-09-05 04:08:00,
2013-09-04 21:10:00,82.1,47.6,29.78,East,100,1.0,2.0,30,0.00,,,0.00,VWS V14.01,2013-09-05 04:10:00,
2013-09-04 21:13:00,82.2,47.7,29.78,East,100,1.0,2.0,30,0.00,,,0.00,VWS V14.01,2013-09-05 04:13:00,
2013-09-04 21:15:00,82.3,47.8,29.77,East,100,2.0,4.0,30,0.00,,,0.00,VWS V14.01,2013-09-05 04:15:00,
2013-09-04 21:18:00,82.3,47.8,29.78,East,100,0.0,2.0,30,0.00,,,0.00,VWS V14.01,2013-09-05 04:18:00,
2013-09-04 21:20:00,82.1,47.6,29.77,East,100,0.0,2.0,30,0.00,,,0.00,VWS V14.01,2013-09-05 04:20:00,
2013-09-04 21:23:00,81.9,47.5,29.78,East,100,0.0,1.0,30,0.00,,,0.00,VWS V14.01,2013-09-05 04:23:00,
2013-09-04 21:25:00,81.7,47.3,29.78,East,100,2.0,2.0,30,0.00,,,0.00,VWS V14.01,2013-09-05 04:25:00,
2013-09-04 21:28:00,81.4,47.9,29.78,East,100,1.0,4.0,31,0.00,,,0.00,VWS V14.01,2013-09-05 04:28:00,
2013-09-04 21:30:00,81.3,47.8,29.78,East,100,2.0,4.0,31,0.00,,,0.00,VWS V14.01,2013-09-05 04:30:00,
2013-09-04 21:33:00,81.3,46.9,29.78,East,100,0.0,4.0,30,0.00,,,0.00,VWS V14.01,2013-09-05 04:33:00,
2013-09-04 21:35:00,81.4,47.0,29.78,East,100,2.0,4.0,30,0.00,,,0.00,VWS V14.01,2013-09-05 04:35:00,
2013-09-04 21:38:00,81.5,47.1,29.78,North,355,2.0,5.0,30,0.00,,,0.00,VWS V14.01,2013-09-05 04:38:00,
2013-09-04 21:40:00,81.8,47.4,29.78,NNE,32,0.0,5.0,30,0.00,,,0.00,VWS V14.01,2013-09-05 04:40:00,
2013-09-04 21:43:00,82.3,47.8,29.78,NNE,32,0.0,1.0,30,0.00,,,0.00,VWS V14.01,2013-09-05 04:43:00,
2013-09-04 21:45:00,82.3,47.8,29.78,NNE,32,1.0,2.0,30,0.00,,,0.00,VWS V14.01,2013-09-05 04:45:00,
2013-09-04 21:48:00,82.2,47.7,29.77,NNE,32,2.0,3.0,30,0.00,,,0.00,VWS V14.01,2013-09-05 04:48:00,
2013-09-04 21:50:00,82.0,47.5,29.78,NNE,32,2.0,3.0,30,0.00,,,0.00,VWS V14.01,2013-09-05 04:50:00,
2013-09-04 21:53:00,82.1,47.6,29.78,NNE,32,0.0,2.0,30,0.00,,,0.00,VWS V14.01,2013-09-05 04:53:00,
2013-09-04 21:55:00,82.0,46.6,29.78,NNE,32,3.0,3.0,29,0.00,,,0.00,VWS V14.01,2013-09-05 04:55:00,
2013-09-04 21:58:00,81.8,47.4,29.78,NNE,32,0.0,3.0,30,0.00,,,0.00,VWS V14.01,2013-09-05 04:58:00,
2013-09-04 22:00:00,81.5,48.0,29.78,NNE,32,0.0,3.0,31,0.00,,,0.00,VWS V14.01,2013-09-05 05:00:00,
2013-09-04 22:03:00,80.9,47.5,29.78,NNE,32,2.0,2.0,31,0.00,,,0.00,VWS V14.01,2013-09-05 05:03:00,
2013-09-04 22:05:00,80.7,47.3,29.77,NNE,32,0.0,3.0,31,0.00,,,0.00,VWS V14.01,2013-09-05 05:05:00,
2013-09-04 22:08:00,80.3,47.8,29.78,NNE,32,1.0,2.0,32,0.00,,,0.00,VWS V14.01,2013-09-05 05:08:00,
2013-09-04 22:10:00,80.2,47.7,29.78,NNE,32,2.0,3.0,32,0.00,,,0.00,VWS V14.01,2013-09-05 05:10:00,
2013-09-04 22:13:00,80.3,46.9,29.78,NNE,32,0.0,3.0,31,0.00,,,0.00,VWS V14.01,2013-09-05 05:13:00,
2013-09-04 22:15:00,80.4,47.0,29.78,NNE,32,2.0,3.0,31,0.00,,,0.00,VWS V14.01,2013-09-05 05:15:00,
2013-09-04 22:18:00,80.7,47.3,29.78,NNE,32,0.0,2.0,31,0.00,,,0.00,VWS V14.01,2013-09-05 05:18:00,
2013-09-04 22:20:00,80.8,47.4,29.78,NNE,32,3.0,3.0,31,0.00,,,0.00,VWS V14.01,2013-09-05 05:20:00,
2013-09-04 22:23:00,80.9,47.5,29.78,NNE,27,0.0,3.0,31,0.00,,,0.00,VWS V14.01,2013-09-05 05:23:00,
2013-09-04 22:25:00,81.0,46.7,29.78,NNE,27,0.0,3.0,30,0.00,,,0.00,VWS V14.01,2013-09-05 05:25:00,
2013-09-04 22:28:00,81.4,47.0,29.78,NNE,27,0.0,3.0,30,0.00,,,0.00,VWS V14.01,2013-09-05 05:28:00,
2013-09-04 22:30:00,81.5,47.1,29.78,NNE,27,1.0,4.0,30,0.00,,,0.00,VWS V14.01,2013-09-05 05:30:00,
2013-09-04 22:33:00,81.4,47.0,29.78,NNE,27,1.0,3.0,30,0.00,,,0.00,VWS V14.01,2013-09-05 05:33:00,
2013-09-04 22:35:00,81.2,46.8,29.78,NNE,27,0.0,3.0,30,0.00,,,0.00,VWS V14.01,2013-09-05 05:35:00,
2013-09-04 22:38:00,80.9,47.5,29.78,NNE,27,2.0,2.0,31,0.00,,,0.00,VWS V14.01,2013-09-05 05:38:00,
2013-09-04 22:40:00,80.6,47.2,29.78,NNW,337,2.0,3.0,31,0.00,,,0.00,VWS V14.01,2013-09-05 05:40:00,
2013-09-04 22:43:00,80.2,47.7,29.78,NNW,337,0.0,3.0,32,0.00,,,0.00,VWS V14.01,2013-09-05 05:43:00,
2013-09-04 22:45:00,79.9,47.4,29.78,NNW,337,2.0,3.0,32,0.00,,,0.00,VWS V14.01,2013-09-05 05:45:00,
2013-09-04 22:48:00,79.6,47.2,29.78,NNW,348,3.0,4.0,32,0.00,,,0.00,VWS V14.01,2013-09-05 05:48:00,
2013-09-04 22:50:00,79.5,47.9,29.78,NNW,346,3.0,4.0,33,0.00,,,0.00,VWS V14.01,2013-09-05 05:50:00,
2013-09-04 22:53:00,79.3,46.9,29.78,NNW,346,1.0,3.0,32,0.00,,,0.00,VWS V14.01,2013-09-05 05:53:00,
2013-09-04 22:55:00,79.2,47.7,29.78,NNW,346,0.0,3.0,33,0.00,,,0.00,VWS V14.01,2013-09-05 05:55:00,
2013-09-04 22:58:00,79.1,46.7,29.78,NNW,346,0.0,0.0,32,0.00,,,0.00,VWS V14.01,2013-09-05 05:58:00,
2013-09-04 23:00:00,79.1,46.7,29.78,NNW,346,1.0,1.0,32,0.00,,,0.00,VWS V14.01,2013-09-05 06:00:00,
2013-09-04 23:03:00,79.1,46.7,29.78,NNW,346,0.0,2.0,32,0.00,,,0.00,VWS V14.01,2013-09-05 06:03:00,
2013-09-04 23:05:00,79.0,46.7,29.78,NNW,346,0.0,2.0,32,0.00,,,0.00,VWS V14.01,2013-09-05 06:05:00,
2013-09-04 23:08:00,78.9,47.4,29.78,NNW,346,0.0,0.0,33,0.00,,,0.00,VWS V14.01,2013-09-05 06:08:00,
2013-09-04 23:10:00,78.9,46.6,29.78,NNW,346,0.0,0.0,32,0.00,,,0.00,VWS V14.01,2013-09-05 06:10:00,
2013-09-04 23:13:00,78.9,46.6,29.78,NNW,346,0.0,1.0,32,0.00,,,0.00,VWS V14.01,2013-09-05 06:13:00,
2013-09-04 23:15:00,78.9,46.6,29.78,NNW,346,0.0,1.0,32,0.00,,,0.00,VWS V14.01,2013-09-05 06:15:00,
2013-09-04 23:18:00,79.0,46.7,29.78,NNW,346,0.0,1.0,32,0.00,,,0.00,VWS V14.01,2013-09-05 06:18:00,
2013-09-04 23:20:00,78.9,46.6,29.78,NNW,346,0.0,1.0,32,0.00,,,0.00,VWS V14.01,2013-09-05 06:20:00,
2013-09-04 23:23:00,78.8,47.3,29.78,NNW,346,0.0,1.0,33,0.00,,,0.00,VWS V14.01,2013-09-05 06:23:00,
2013-09-04 23:25:00,78.8,47.3,29.78,NNW,346,0.0,1.0,33,0.00,,,0.00,VWS V14.01,2013-09-05 06:25:00,
2013-09-04 23:28:00,78.6,47.1,29.78,NNW,346,0.0,1.0,33,0.00,,,0.00,VWS V14.01,2013-09-05 06:28:00,
2013-09-04 23:30:00,78.6,47.1,29.78,NNW,346,1.0,2.0,33,0.00,,,0.00,VWS V14.01,2013-09-05 06:30:00,
2013-09-04 23:33:00,78.5,47.0,29.78,NNW,346,0.0,3.0,33,0.00,,,0.00,VWS V14.01,2013-09-05 06:33:00,
2013-09-04 23:35:00,78.5,47.0,29.78,NNW,346,0.0,3.0,33,0.00,,,0.00,VWS V14.01,2013-09-05 06:35:00,
2013-09-04 23:38:00,78.4,47.0,29.78,NNW,346,0.0,0.0,33,0.00,,,0.00,VWS V14.01,2013-09-05 06:38:00,
2013-09-04 23:40:00,78.4,47.0,29.78,NNW,346,3.0,3.0,33,0.00,,,0.00,VWS V14.01,2013-09-05 06:40:00,
2013-09-04 23:43:00,78.2,46.8,29.78,NNW,343,0.0,4.0,33,0.00,,,0.00,VWS V14.01,2013-09-05 06:43:00,
2013-09-04 23:45:00,78.1,47.5,29.78,NNW,343,2.0,4.0,34,0.00,,,0.00,VWS V14.01,2013-09-05 06:45:00,
2013-09-04 23:48:00,77.9,47.3,29.78,NNW,343,0.0,3.0,34,0.00,,,0.00,VWS V14.01,2013-09-05 06:48:00,
2013-09-04 23:50:00,77.8,47.2,29.78,NNW,343,0.0,3.0,34,0.00,,,0.00,VWS V14.01,2013-09-05 06:50:00,
2013-09-04 23:53:00,77.7,47.1,29.78,NNW,343,1.0,2.0,34,0.00,,,0.00,VWS V14.01,2013-09-05 06:53:00,
2013-09-04 23:55:00,77.7,47.1,29.78,NNW,343,0.0,2.0,34,0.00,,,0.00,VWS V14.01,2013-09-05 06:55:00,
2013-09-04 23:58:00,77.6,47.0,29.78,NNW,343,2.0,2.0,34,0.00,,,0.00,VWS V14.01,2013-09-05 06:58:00,